Simultaneous Nadir Overpasses (SNOs) Predictions

Prediction of SNOs between AQUA and NOAA-19 Satellite Orbit:

Table of predicted SNOs for the next 14.0 days since TLE Epoch: 9/18/2021
Index Date (AQUA) Time (AQUA) Lat,Lon (AQUA) SZA (AQUA ) Date (NOAA-19) Time (NOAA-19) Lat,Lon (NOAA-19) SZA (NOAA-19 ) Distance(km) Time Diff (sec)
1 09/18/2021 10:29:28 78.16, 3.29 76.98 09/18/2021 10:28:24 78.10, -0.51 77.23 87.16 64
2 09/18/2021 11:19:02 -78.49, 169.30 102.59 09/18/2021 11:19:10 -78.50, 169.24 102.58 1.62 8
3 09/20/2021 16:52:47 78.48, -94.09 78.26 09/20/2021 16:52:21 78.46, -94.18 78.26 2.53 26
4 09/20/2021 17:42:14 -78.50, 73.42 101.70 09/20/2021 17:43:16 -78.51, 73.43 101.71 1.30 62
5 09/22/2021 22:26:31 -78.44, 2.65 100.94 09/22/2021 22:25:24 -78.45, 2.57 100.91 2.01 67
6 09/22/2021 23:15:59 78.50, 169.99 79.15 09/22/2021 23:16:27 78.49, 170.07 79.13 2.14 28
7 09/25/2021 04:49:43 -78.47, -93.28 100.04 09/25/2021 04:49:30 -78.47, -93.26 100.04 0.39 13
8 09/27/2021 10:23:27 78.44, 3.44 80.78 09/27/2021 10:22:41 78.46, 3.46 80.81 1.97 46
9 09/27/2021 11:12:54 -78.46, 170.98 99.19 09/27/2021 11:13:36 -78.48, 170.89 99.17 3.32 42
10 09/29/2021 16:46:38 78.48, -92.55 81.70 09/29/2021 16:46:46 78.47, -92.37 81.68 4.20 8
11 10/01/2021 22:20:22 -78.46, 4.13 97.48 10/01/2021 22:19:49 -78.43, 4.14 97.50 3.36 33



Historial Predications of SNOs between AQUA and NOAA-19
